Date String (YYYY-MM-DD hh:mm:ss) UTC,Instrument flags,Ambient pressure (hPa),Sample flow (lpm),Bypass flow (lpm),Sample temperature (°C),Ambient temperature (°C),ASC tube jacket temperature (°C),LED temperature (°C),Box temperature (°C),Sample RH (%),Span deviation,Mass concentration (μg/m³),Mass concentration (μg/m³),Mass concentration (μg/m³)
DateTimeUTC,F1_M11,P_M11,Q1_M11,Q2_M11,T1_M11,T2_M11,T3_M11,T4_M11,T5_M11,U1_M11,ZSPAN_M11,X0_M11,X2_M11,X1_M11
2022-01-28 22:00:00,,0833.0,5.00,0.00,25.5,24.9,00.0,34.4,27.4,06.4,0000.0,0003.50,0001.88,0001.35
2022-01-28 22:01:00,,0833.0,5.00,0.00,25.5,25.0,00.0,34.4,27.4,06.3,0000.0,0003.98,0001.88,0001.35
2022-01-28 22:02:00,,0833.0,5.00,0.00,25.5,25.0,00.0,34.4,27.3,06.3,0000.0,0005.52,0001.87,0001.34
2022-01-28 22:03:00,,0833.0,5.00,0.00,25.6,25.0,00.0,34.4,27.4,06.3,0000.0,0006.02,0001.86,0001.35
2022-01-28 22:04:00,,0833.0,5.01,0.00,25.6,25.0,00.0,34.4,27.4,06.5,0000.0,0005.95,0001.84,0001.34
2022-01-28 22:05:00,,0833.0,5.00,0.00,25.6,25.0,00.0,34.4,27.4,06.3,0000.0,0006.07,0001.87,0001.33
2022-01-28 22:06:00,,0833.1,5.00,0.00,25.6,25.0,00.0,34.5,27.4,06.4,0000.0,0007.52,0001.85,0001.32
2022-01-28 22:07:00,,0833.0,5.02,0.00,25.6,25.0,00.0,34.5,27.4,06.5,0000.0,0007.85,0001.88,0001.34
2022-01-28 22:08:00,,0833.0,4.99,0.00,25.6,25.0,00.0,34.5,27.4,06.5,0000.0,0008.00,0001.98,0001.36
2022-01-28 22:09:00,,0833.0,5.00,0.00,25.6,25.1,00.0,34.5,27.4,06.5,0000.0,0008.14,0001.99,0001.37
2022-01-28 22:10:00,,0833.0,5.00,0.00,25.6,25.1,00.0,34.5,27.5,06.4,0000.0,0008.16,0002.01,0001.38
2022-01-28 22:11:00,,0832.9,5.00,0.00,25.7,25.1,00.0,34.5,27.5,06.4,0000.0,0008.17,0002.01,0001.37
2022-01-28 22:12:00,,0832.9,5.00,0.00,25.7,25.1,00.0,34.5,27.5,06.4,0000.0,0008.08,0002.02,0001.37
2022-01-28 22:13:00,,0832.9,5.00,0.00,25.7,25.2,00.0,34.5,27.6,06.7,0000.0,0007.51,0002.04,0001.39
2022-01-28 22:14:00,,0832.8,5.00,0.00,25.7,25.2,00.0,34.5,27.6,06.5,0000.0,0006.96,0002.03,0001.38
2022-01-28 22:15:00,,0832.8,5.00,0.00,25.7,25.2,00.0,34.6,27.6,06.6,0000.0,0006.77,0002.06,0001.39
2022-01-28 22:16:00,,0832.8,5.00,0.00,25.8,25.2,00.0,34.6,27.6,06.6,0000.0,0006.88,0002.09,0001.41
2022-01-28 22:17:00,,0832.9,5.00,0.00,25.8,25.2,00.0,34.6,27.6,06.4,0000.0,0005.67,0002.13,0001.41
2022-01-28 22:18:00,,0832.8,5.00,0.00,25.8,25.2,00.0,34.6,27.6,06.4,0000.0,0004.57,0002.11,0001.40
2022-01-28 22:19:00,,0832.9,4.99,0.00,25.8,25.2,00.0,34.6,27.6,06.5,0000.0,0004.24,0002.02,0001.39
2022-01-28 22:20:00,,0832.9,5.00,0.00,25.8,25.2,00.0,34.6,27.6,06.4,0000.0,0003.94,0001.96,0001.39
2022-01-28 22:21:00,,0832.8,5.02,0.00,25.8,25.3,00.0,34.6,27.6,06.5,0000.0,0004.77,0001.98,0001.38
2022-01-28 22:22:00,,0832.9,4.99,0.00,25.8,25.3,00.0,34.7,27.7,06.5,0000.0,0004.86,0001.98,0001.38
2022-01-28 22:23:00,,0832.8,5.00,0.00,25.8,25.3,00.0,34.7,27.7,06.4,0000.0,0004.97,0001.96,0001.39
2022-01-28 22:24:00,,0832.8,5.00,0.00,25.9,25.3,00.0,34.7,27.7,06.3,0000.0,0004.35,0001.94,0001.38
2022-01-28 22:25:00,,0832.8,5.00,0.00,25.9,25.3,00.0,34.7,27.7,06.5,0000.0,0004.28,0001.95,0001.39
2022-01-28 22:26:00,,0832.7,5.00,0.00,25.9,25.3,00.0,34.7,27.8,06.3,0000.0,0005.78,0001.94,0001.37
2022-01-28 22:27:00,,0832.7,5.01,0.00,25.9,25.4,00.0,34.7,27.8,06.5,0000.0,0006.04,0001.90,0001.35
2022-01-28 22:28:00,,0832.7,5.00,0.00,26.0,25.4,00.0,34.7,27.8,06.3,0000.0,0006.00,0001.85,0001.34
2022-01-28 22:29:00,,0832.7,5.01,0.00,26.0,25.4,00.0,34.8,27.8,06.2,0000.0,0005.97,0001.82,0001.31
2022-01-28 22:30:00,,0832.7,5.01,0.00,26.0,25.4,00.0,34.8,27.8,06.2,0000.0,0005.93,0001.79,0001.30
2022-01-28 22:31:00,,0832.7,5.00,0.00,26.0,25.4,00.0,34.8,27.8,06.1,0000.0,0005.89,0001.77,0001.29
2022-01-28 22:32:00,,0832.8,5.00,0.00,26.0,25.4,00.0,34.8,27.9,06.1,0000.0,0005.91,0001.74,0001.28
2022-01-28 22:33:00,,0832.8,5.00,0.00,26.0,25.5,00.0,34.8,27.9,06.2,0000.0,0005.88,0001.71,0001.27
2022-01-28 22:34:00,,0832.8,4.99,0.00,26.0,25.5,00.0,34.8,27.9,06.1,0000.0,0006.69,0001.69,0001.26
2022-01-28 22:35:00,,0832.8,5.00,0.00,26.1,25.5,00.0,34.8,28.0,06.1,0000.0,0007.32,0001.67,0001.23
2022-01-28 22:36:00,,0832.7,5.00,0.00,26.1,25.5,00.0,34.9,28.0,06.0,0000.0,0007.32,0001.64,0001.21
2022-01-28 22:37:00,,0832.8,5.00,0.00,26.1,25.5,00.0,34.9,28.0,06.1,0000.0,0006.21,0001.59,0001.21
2022-01-28 22:38:00,,0832.7,5.00,0.00,26.1,25.6,00.0,34.9,28.0,06.3,0000.0,0005.83,0001.54,0001.20
2022-01-28 22:39:00,,0832.7,5.00,0.00,26.2,25.6,00.0,34.9,28.1,06.2,0000.0,0005.85,0001.56,0001.20
2022-01-28 22:40:00,,0832.7,5.00,0.00,26.2,25.6,00.0,35.0,28.1,06.2,0000.0,0006.86,0001.55,0001.20
2022-01-28 22:41:00,,0832.8,5.01,0.00,26.2,25.7,00.0,35.0,28.1,06.0,0000.0,0007.30,0001.59,0001.21
2022-01-28 22:42:00,,0832.8,5.00,0.00,26.2,25.7,00.0,35.0,28.2,06.2,0000.0,0007.34,0001.61,0001.20
2022-01-28 22:43:00,,0832.8,4.99,0.00,26.3,25.7,00.0,35.0,28.1,06.1,0000.0,0006.62,0001.64,0001.20
2022-01-28 22:44:00,,0832.8,5.00,0.00,26.3,25.7,00.0,35.0,28.2,06.1,0000.0,0006.48,0001.69,0001.20
2022-01-28 22:45:00,,0832.8,4.99,0.00,26.3,25.8,00.0,35.1,28.2,06.1,0000.0,0006.50,0001.69,0001.19
2022-01-28 22:46:00,,0832.7,5.02,0.00,26.3,25.8,00.0,35.1,28.3,06.0,0000.0,0006.67,0001.68,0001.20
2022-01-28 22:47:00,,0832.8,5.00,0.00,26.3,25.8,00.0,35.1,28.3,06.3,0000.0,0007.60,0001.68,0001.20
2022-01-28 22:48:00,,0832.8,4.99,0.00,26.4,25.8,00.0,35.1,28.3,06.7,0000.0,0007.49,0001.75,0001.21
2022-01-28 22:49:00,,0832.7,5.00,0.00,26.4,25.8,00.0,35.1,28.4,06.7,0000.0,0007.53,0001.81,0001.24
2022-01-28 22:50:00,,0832.8,5.00,0.00,26.4,25.9,00.0,35.2,28.4,06.5,0000.0,0007.52,0001.79,0001.25
2022-01-28 22:51:00,,0832.8,5.00,0.00,26.5,25.9,00.0,35.2,28.4,06.6,0000.0,0006.91,0001.81,0001.27
2022-01-28 22:52:00,,0832.7,5.00,0.00,26.5,25.9,00.0,35.2,28.4,06.6,0000.0,0006.32,0001.81,0001.29
2022-01-28 22:53:00,,0832.7,5.01,0.00,26.5,25.9,00.0,35.2,28.4,06.5,0000.0,0006.32,0001.81,0001.30
2022-01-28 22:54:00,,0832.7,5.01,0.00,26.5,25.9,00.0,35.2,28.5,06.4,0000.0,0006.23,0001.78,0001.30
2022-01-28 22:55:00,,0832.8,4.99,0.00,26.5,26.0,00.0,35.3,28.5,06.4,0000.0,0005.97,0001.71,0001.29
2022-01-28 22:56:00,,0832.8,5.00,0.00,26.6,26.0,00.0,35.3,28.5,06.4,0000.0,0005.84,0001.71,0001.29
2022-01-28 22:57:00,,0832.8,5.00,0.00,26.6,26.0,00.0,35.3,28.5,06.6,0000.0,0005.52,0001.78,0001.30
2022-01-28 22:58:00,,0832.8,4.98,0.00,26.6,26.0,00.0,35.3,28.5,06.6,0000.0,0004.92,0001.85,0001.32
2022-01-28 22:59:00,,0832.8,5.00,0.00,26.6,26.0,00.0,35.4,28.5,06.7,0000.0,0004.50,0001.83,0001.33
